Race Results for
Patterson Pass Road Race
Tracy, CA
(Event Information)
View By:
Road Race on 08/09/2008

Note: Ranking points are NOT upgrade points. An explanation of ranking points can be found here.


Men - Pro/Cat 1/2

 Place Points NameCity, StateTime USAC #BibTeam
1498.79Christopher Jones   Bend, OR00:00:00.00 187300  12 UCI CT: Team Type 1
2505.28Vincent Owens   Fresno, CA00:00:00.00 242560  25 
3511.77Andres Gil   Stockton, CA00:00:00.00 171882  17 Pacific State Bank Cycling Tea
4518.26Daniel Bryant   Carmichael, CA00:00:00.00 195929  19 Specialized/Sierra Nevada
5524.75Ryan Bennett   San Francisco, CA00:00:00.00 180391  23 NorCal Elite Cycling
6531.24Nathaniel English   Berkeley, CA00:00:00.00 258309  ZteaM
7537.74Chris D'Aluisio (1 - Cat1)   Corralitos, CA00:00:00.00 100984  Morgan Stanley/Specailized
8544.23Chris Turner   Los Altos, CA00:00:00.00 253101  Above Category Racing
9550.72James Wingert   San Diego, CA00:00:00.00 256481  16 Davis Bike Club
10557.21Thomas Novikoff   San Jose, CA00:00:00.00 141331  Cambiamento D'Andaturo-Team Co
DNSJeff Williams   Los Gatos, CA00:00:00.00 236985   Webcor/Alto Velo
DNPMark Barnum   Sacramento, CA00:00:00.00 213555  Bollo Racing
DNPNathan Falk   Pleasanton, CA00:00:00.00 98304  International Christian Cyclin
DNPDaniel Lam   Kalamazoo, MI00:00:00.00 239504  TBS Racing
DNPJustin Laue (Cat2)   Austin, TX00:00:00.00 264982  ZteaM
DNPMichael Margraf   Auburn, CA00:00:00.00 128847  VOS Racing
DNPJohn Staroba   Santa Rosa, CA00:00:00.00 195591  13 Team NorCal Bike Sport
DNPRyan Prsha   San Jose, CA00:00:00.00 247068  14 Webcor/Alto Velo
DNPMicah Herman   Carson City, NV00:00:00.00 224018  15 VOS Racing
DNPNathan Freed   Tahoe City, CA00:00:00.00 86484  18 Cyclepaths/Wild Cherries Racin
DNPSean McBride   Oakland, CA00:00:00.00 190591  20 BPG/Montano Velo
DNPEric Fischer   Berkeley, CA00:00:00.00 246309  21 Kovarus/ABTA
DNPDan Martin   Pleasanton, CA00:00:00.00 179386  22 Unattached
DNPElliot Jaramillo   Burlingame, CA00:00:00.00 179930  24 BPG/Montano Velo
DNPRobert Dahl   Oakland, CA00:00:00.00 218381  11 Metromint

Men - Cat 1/2/3 - Master - 35-99

 Place Points NameCity, StateTime USAC #BibTeam
1486.01Colin Cooper   Berkeley, CA00:00:00.00 195986  401 morgan stanley/24 hr fitness/s
2494.03Christopher Phipps   San Francisco, CA00:00:00.00 233623  409 Morgan Stanley/24 Hr Fitness/S
3502.06Scott Fonseca   Fair Oaks, CA00:00:00.00 204715  403 Zenn Cycling Team
4510.08Tom Roberts   Morgan Hill, CA00:00:00.00 245349  418 Webcor/Alto Velo
5518.11Richard Thurman   Chico, CA00:00:00.00 35561  412 Soul Craft
6526.13David Levine   Alamo, CA00:00:00.00 145573  408 Synergy-Taleo Racing
7534.16Alex Smith   Berkeley, CA00:00:00.00 33022  411 Veloworx Racing
8542.18Raffi Jilizian   Danville, CA00:00:00.00 187667  405 FORM Fitness
9550.21Michael Vetterli   Alamo, CA00:00:00.00 214565  413 Olympic Club
10558.23Kellin Cooper   Kensington, CA00:00:00.00 195773  402 morgan stanley/24 hr fitness/s
11566.26Clark Foy   Los Gatos, CA00:00:00.00 255066  404 SJBC/SugarCRM
12574.28Jack Rector   San Ramon, CA00:00:00.00 29332  410 Form Fitness
DNSKevin Kennedy   Danville, CA00:00:00.00 264239   Synergy-Taleo Racing
DQScott Cole   Oakland, CA00:00:00.00 207165  400 Team Oakland Cycling/Kaiser Pe
DNPChris Kovash   Ashland, OR00:00:00.00 19729  407 Team Oakland/Kaiser Permanente
DNPHaydn Mackay (Cat2)   Alameda, CA00:00:00.00 212699  414 Kaiser Permanente/ Team Oaklan
DNPKevin Metcalfe   Pleasant Hill, CA00:00:00.00 47519  415 TeamSpecializedRacing Masters
DNPJohn McGill   Montpelier, VT00:00:00.00 101738  416 Unattached
DNPNick Theobald   Burlingame, CA00:00:00.00 35297  417 SJBC/SugarCRM

Men - Cat 3

 Place Points NameCity, StateTime USAC #BibTeam
1524.96Gregory Remaly   Phoenix, AZ00:00:00.00 177523  172 NA
2526.15Brandon Franklin   San Francisco, CA00:00:00.00 239689  147 Sierra Pacific Racing
3527.34Robert Amatelli   San Jose, CA00:00:00.00 270304  194 Zteam
4Seth Zaleski   00:00:00.00  181 NA
5529.72Heath Medeiros   Carson City, NV00:00:00.00 238772  183 Alta Alpina Cycling Club
6530.92Conrad Snover   Truckee, CA00:00:00.00 196378  177 Cyclepaths/Wild Cherries Racin
7532.11Joshua Hughes   Sacramento, CA00:00:00.00 123925  184 Victory Velo Bike Shop
8533.30Eric Kimbles   Larkspur, CA00:00:00.00 60096  158 Z-Team
9534.49Stephen O'Mara   San Rafael, CA00:00:00.00 241392  168 ZTeaM
10535.68Ed Richardson   Livermore, CA00:00:00.00 272019  173 InfoVista/East Bay Cyclists
11536.87Andrew Demas   Los Altos, CA00:00:00.00 208643  143 Third Pillar
12538.06Chris Isley   El Granada, CA00:00:00.00 253814  155 Webcor/Alto velo
13539.25David Parrish   San Francisco, CA00:00:00.00 233830  169 Roaring Mouse Cycles
14540.44William (Billy) Crane   Mountain View, CA00:00:00.00 138129  188 Webcor/Alto Velo
15541.63Paul Dyrwal   San Rafael, CA00:00:00.00 254245  144 ZTeam Cycling
16542.83Giampaolo Pesce   Santa Rosa, CA00:00:00.00 66425  170 norcal bike sport
17544.02Peter Montoya   Fresno, CA00:00:00.00 222038  165 SSC/ACTION SPORTS
18545.21John Hancock   Sacramento, CA00:00:00.00 195844  151 Specialized/Sierra Nevada
19546.40carmi Schulman   Seattle, WA00:00:00.00 200292  174 Active Athlete/Squadra Ovest
20547.59Kevin Buchholz   Santa Rosa, CA00:00:00.00 239765  137 Team NorCal Bike Sport
21548.78Trevor Thompson   Truckee, CA00:00:00.00 212806  180 Team Ride for a Reason
22549.97Petro Hizalev   Palo Alto00:00:00.00 224168  153 Webcor/Alto Velo
23551.16Bob Delp   Folsom, CA00:00:00.00 9138  142 Team Ride for a Reason
24552.35Ethan Atkins   San Francisco, CA00:00:00.00 224998  134 Metromint Cycling on Marin Bik
25553.54Michael Fee   Oakland, CA00:00:00.00 75599  146 Kaiser Permanente/Team Oakland
26554.74Michael Grundmann   Sunnyvale, CA00:00:00.00 182738  150 Webcor/Alto Velo
27555.93Demetrius Houpis   Roseville, CA00:00:00.00 186809  154 UC Davis/SHARPS
28557.12Robert Raymond   Hayward, CA00:00:00.00 200414  171 InfoVista Cycling Team
29558.31Adam Smith   Santa Rosa, CA00:00:00.00 245461  175 Davis Bike Club
30Mike Vella   00:00:00.00  190 Webcor
31560.69Murray Swanson   Woodside, CA00:00:00.00 206144  179 Peninsula Velo/Kondra Systems
32561.88Michael Gil   San Francisco, CA00:00:00.00 261220  148 Godspeed Courier
33563.07James Eyman   Berkeley, CA00:00:00.00 207671  145 Berkeley Bicycle Club (BBC)
34564.26Josh LaGrange   Bend, OR00:00:00.00 201330  159 Form Fitness
35565.45Connor Spencer   San Francisco, CA00:00:00.00 256539  178 Freewheel Bike Shop
36566.65Michael Gil   San Francisco, CA00:00:00.00 261220  186 Godspeed Courier
37567.84Alex Brookhouse   Santa Rosa, CA00:00:00.00 241648  136 Team Norcal Bike Sport
38569.03Greg McQuaid   San Francisco, CA00:00:00.00 249424  164 SJBC/SugarCRM
39570.22Maurice Klein   Oakland, CA00:00:00.00 254638  192 ThirstyBear/Castro Valley Cycl
40571.41Christopher Swinehart   Sacramento, CA00:00:00.00 237421  182 Davis Bike Club
41572.60William Dunham   San Jose, CA00:00:00.00 206162  189 Webcor/Alto Velo
42573.79Paul Cook   Lafayette, CA00:00:00.00 195716  140 Berkeley Bicycle Club
DNPWhitney Bradley   Burlingame, CA00:00:00.00 118779  135 Peninsula Velo/Kondra Systems
DNPGeoffrey Davis   San Luis Obispo, CA00:00:00.00 205688  141 Active Athlete/Squadra Ovest
DNPChester Gillmore   Santa Barbara, CA00:00:00.00 269966  149 Platinum Performace Cycling Te
DNPKeith Jordon   Hayward, CA00:00:00.00 254515  157 Berkeley Bicycle Club (BBC)
DNPAndrew Lancashire   Elk Grove, CA00:00:00.00 218734  160 Specialized/Sierra Nevada
DNPRyan MacDonald   Martinez, CA00:00:00.00 160274  161 Burke's Army
DNPDavid Mai   Novato, CA00:00:00.00 232508  162 Kovarus/ ABTA
DNPDavid Nader   San Mateo, CA00:00:00.00 175914  167 Peninsula Velo
DNPSteven Smith   Santa Barbara, CA00:00:00.00 67527  176 Platinum Performance
DNPDamian Gonzalez   Stockton, CA00:00:00.00 178252  185 Pacific State Bank Cycling Tea
DNPMenso de Jong   Cupertino, CA00:00:00.00 243003  187 Santa Cruz Allride
DNPLobisser Kyle   00:00:00.00  191 
DNPAnthony Leal   00:00:00.00  193 Soulcraft Bikes

Men - Cat 4

 Place Points NameCity, StateTime USAC #BibTeam
1534.66Kurt Sandiforth   Oakland, CA00:00:00.00 249642  282 Wheelgirl.com
2536.41Michael Matiasek   Davis, CA00:00:00.00 143631  265 Davis Bike Club
3538.15David Rossow   Los Gatos, CA00:00:00.00 232665  280 Webcor/Alto Velo
4Jared Prince   00:00:00.00  278 Godspeed/ ZOOM
5541.65Francisco Sanchez Jr   Stockton, CA00:00:00.00 270261  281 Pacific State Bank Cycling Tea
6543.39Justin Molloy   Kelseyville, CA00:00:00.00 280407  269 NA
7545.14Sean McDonald   Wallace, CA00:00:00.00 262357  267 Pacific State Bank Cycling Tea
8546.89Calvin Spivey   Oakland, CA00:00:00.00 220718  287 the pedaler
9548.63Brian Krall   Davis, CA00:00:00.00 156347  261 Davis Bike Club
10taylor bertrand-barrett   00:00:00.00  239 colavita norcal
11552.12Scott Peifer   Granite Bay, CA00:00:00.00 265877  274 Team City
12553.87Isaias Job   Fremont, CA00:00:00.00 207885  259 Roaring Mouse Cycles
13555.62Bill Laddish   Castro Valley, CA00:00:00.00 20105  262 NA
14557.36Anthony Coando   San Francisco, CA00:00:00.00 170101  246 Active Athlete/Squadra Ovest
15559.11Tim Fehon   San Francisco, CA00:00:00.00 263093  249 NA
16560.86Shawn Yackle   Brooklyn, NY00:00:00.00 237175  295 Godspeed Courier
17562.60Chris Parod   Mather, CA00:00:00.00 270992  273 Team Ride for a Reason
18564.35Rob Bishop   Chico00:00:00.00 230714  240 Chico Corsa
19566.10Ron Nelson   Martinez, CA00:00:00.00 257207  272 NA
20567.84Matt Chappell   Truckee, CA00:00:00.00 273103  245 Cyclepaths/Wildcherries Racing
21569.59Bruno Pitton   Winters, CA00:00:00.00 240530  275 Davis Bike Club
22571.34Alexander Yermolovich   Santa Clara, CA00:00:00.00 220894  296 UCI Cycling
23573.08Jason Arinno   Elk Grove, CA00:00:00.00 260928  233 Davis Bike Club
24574.83Stacey Sell   Prunedale, CA00:00:00.00 235653  285 Fox Racing Factory Team
25Forrest Huisman   00:00:00.00  258 Cyclepaths/Wild Cherries
26578.32Paul Sechrist   San Jose, CA00:00:00.00 212035  284 Webcor/Alto Velo
27580.07Benjamin Fineman   Davis, CA00:00:00.00 240554  250 UC Davis
28581.81Benjamin Bryant   Santa Rosa, CA00:00:00.00 247533  242 Chico Corsa
29583.56James Werle   San Jose Ca00:00:00.00 219990  292 LGBRC
30585.31benjamin joplin   Alamo, CA00:00:00.00 273316  260 Bikes 4 Life
31587.05Barrett Ausman   San Jose, CA00:00:00.00 186327  236 Webcor/Alto Velo
32588.80Christopher Coble   Concord, CA00:00:00.00 254754  247 Synergy-Taleo Racing
DNSPat Beckley   Corning, CA00:00:00.00 250242   chico corsa
DNSBenjamin Bell   Salt Lake City, UT00:00:00.00 270517   Dolce Vita Cycling
DNSCarl Butler   Livermore, CA00:00:00.00 195548   Valley Spokesmen Racing Team
DNSBrandon Franklin   San Francisco, CA00:00:00.00 239689   Sierra Pacific Racing
DNSdonald hahn   Reno, NV00:00:00.00 280149   NA
DNSJason Hanchett   Albany, CA00:00:00.00 255669   Berkeley Bicycle Club (BBC)
DNSJames Hayden   San Francisco, CA00:00:00.00 250790   Fusion Sport
DNSAndrew Hsu   Berkeley, CA00:00:00.00 273293   
DNSAlvaro Mosquera   Sacramento, CA00:00:00.00 236809   Berkeley Bicycle Club (BBC)
DNSTravis T   San Francisco, CA00:00:00.00 158451   Team Freewheel
DNSCorey Ward   Morgan Hill, CA00:00:00.00 157390   Team Chico & Specialized
DNPCesar Anaya   Fresno, CA00:00:00.00 241922  234 Herb Bauer Cycling
DNPAlexander Blease   00:00:00.00  241 Chico Corsa
DNPRyan Byars   Durham, NC00:00:00.00 266612  244 Roaring Mouse Cycles
DNPKevin Scott Davis   Palo Alto, CA00:00:00.00 257793  248 QuadCycles
DNPdonald hahn   Reno, NV00:00:00.00 280149  253 NA
DNPKeith Hillier   Millbrae, CA00:00:00.00 276108  256 Mad Cat Bicycles
DNPPeter Lanik   Ashburn, VA00:00:00.00 226531  263 Action Sports/SSC Cycling Team
DNPGary Mandy   Reno, NV00:00:00.00 273033  264 Cycle Paths/Wild Cherries Raci
DNPJonathan Moskowitz   Benicia, CA00:00:00.00 213197  270 Jonathan Moskowitz
DNPIvan Poddubnyy   San Jose, CA00:00:00.00 266310  276 Webcor/AltoVelo
DNPRyan Price   Santa Rosa, CA00:00:00.00 267121  277 NA
DNPAntonio Ricalde   San Jose, CA00:00:00.00 210987  279 Active Athlete/Squadra Ovest
DNPCorey Scobie   Pleasanton, CA00:00:00.00 272080  283 InfoVista Cycling Team
DNPMichael Simos   Redwood City, CA00:00:00.00 271296  286 Easton/SugarCRM/Specialized
DNPChris Stevens   Oakland, CA00:00:00.00 236515  288 Godspeed Courier
DNPCaden Taylor   Tucson, AZ00:00:00.00 240890  290 Form Fitness
DNPBrad Wilson   Sacramento, CA00:00:00.00 273321  293 Team Mad Cat
DNPBen Wright   Wixom, MI00:00:00.00 240941  294 Fox Racing Shox
DNPDaniel Felix   Fresno, CA00:00:00.00 255819  297 Action Sports/SSC Cycling Team
DNPDale Matsuda   Rancho Cordova, CA00:00:00.00 200040  266 Easton/SugarCRM/Specialized

Men - Cat 4/5 - Master A - 35-99

 Place Points NameCity, StateTime USAC #BibTeam
1535.03Tom Vanderheiden   Pleasant Hill, CA00:00:00.00 263253  557 Wells Fargo Racing Team
2536.49Benjamin Holland   Castro Valley, CA00:00:00.00 258722  524 International Christian CC
3537.96Markham Connolly   Berkeley, CA00:00:00.00 208359  510 Touchstone Climbing
4539.42Todd Peterson   Amador City, CA00:00:00.00 277762  544 NA
5540.89Robert McDaniel (1 - Cat4)   Palo Alto, CA00:00:00.00 231918  535 Webcor/Alto Velo
6542.35Mark Mastoras   San Bruno, CA00:00:00.00 117797  533 Active Athlete/Squadra Ovest
7543.81Richard Gelsi-Medeot   Novato, CA00:00:00.00 225191  518 wtb racing
8545.28Jason Buckley   Sonoma, CA 274029  504 colavita racing
9546.74John Swift   San Jose, CA00:00:00.00 273816  554 InfoVista Cycling Team
10548.21Bill Beers   Danville, CA00:00:00.00 236371  502 Wells Fargo Racing Team
11549.67John Houston   Pleasanton, CA00:00:00.00 255975  525 IC3
12551.14Leonel Quinteros   San Francisco, CA00:00:00.00 141358  547 Synergy-Taleo
13552.60Andrew Frey   Pleasanton, CA00:00:00.00 49971  515 ICCC
14554.06Allen Wulczynski   San Jose, CA00:00:00.00 271874  559 SJBC/SugarCRM
15eric hovland   00:00:00.00  526 Berkeley Bicycle Club
16556.99Erik Salander   Belmont, CA00:00:00.00 195443  550 Peninsula Velo/Kondra Systems
17558.46Todd Manley   San Jose, CA00:00:00.00 253905  532 SJBC/SugarCRM
18559.92Randy Floyd   Newcastle, CA00:00:00.00 90079  514 NA
19561.38Steven Woo   Los Altos, CA00:00:00.00 38840  558 Easton/SugarCRM/Specialized
20562.85Bradford Hasse   El Dorado Hills, CA00:00:00.00 236804  523 Body Concepts
21564.31Matthew Gregory   Escalon, CA00:00:00.00 250497  521 InfoVista Cycling Team
22565.78Matt Conidaris   Gold River, CA00:00:00.00 195944  509 Body Concepts-Peak Cycling
23567.24johannes peters   Danville, CA00:00:00.00 252307  543 Wells Fargo
24568.70James Gordon   San Francisco, CA00:00:00.00 271557  519 Dolce Vita Cycling
25570.17Timothy Roberts   Dixon, CA00:00:00.00 30120  548 dbc
26571.63Paul Taylor   Brentwood, CA00:00:00.00 207281  555 Metromint on Marin Bikes
27573.10James Rosberg   San Francisco, CA00:00:00.00 215977  549 Roaring Mouse Cycles
28574.56Greg McCormac   Danville, CA00:00:00.00 171823  534 Wells Fargo Racing
29576.02James Porter   Palo Alto, CA00:00:00.00 238708  545 NA
30577.49Kevin Threm   Aptos, CA00:00:00.00 255687  556 NA
31578.95Lubos Parobek   Sunnyvale, CA00:00:00.00 224621  542 Berkeley Bike Club (BBC)
32580.42Nick Fitton   Livermore, CA00:00:00.00 254446  513 Unattached
33581.88Michael Coppolino   San Francisco, CA00:00:00.00 237772  511 Trips for Kids
34583.35Bob Hasenick   Santa Rosa, CA00:00:00.00 272219  522 Team CS
35584.81Jeff Sobul   Oakland, CA00:00:00.00 199100  552 Kaiser Permanente/Team Oakland
36586.27Mike Gregoire   Alamo, CA00:00:00.00 264782  520 Synergy/Taleo
37587.74Robert Napieralski   Springville, CA00:00:00.00 271499  538 Action Sports/SSC Racing Team
38589.20Kristopher Spyrka   Alamo, CA00:00:00.00 207144  553 Synergy-Taleo
DNSErik Bost (Cat4)   Rocklin, CA00:00:00.00 242962   NA
DNSChris Callahan   Alamo, CA00:00:00.00 242571   Wells Fargo Racing Team
DNSMichael Campbell   Berkeley, CA00:00:00.00 231290   Synergy-Taleo Racing
DNSDavid Colyer   Novato, CA00:00:00.00 259783   Synergy-Taleo
DNSGregory Colyer   Hercules, CA00:00:00.00 254007   Synergy-Taleo
DNSRaymond (Chip) Gale   San Mateo, CA00:00:00.00 146190   Third Pillar
DNSRick Lawton   Pleasanton, CA00:00:00.00 141309   NA
DNSDaryl Nelson   San Rafael, CA00:00:00.00 131311   Synergy-Taleo
DNSSteve Offerman   Sacramento, CA00:00:00.00 81992   Rio Strada Racing
DNSJon Orban   Burlingame, CA00:00:00.00 240114   third pillar
DNSCharles Salmon   Palo Alto, CA00:00:00.00 196388   NA
DQJohn Prosser   00:00:00.00  546 Z Team
DNPMichael Ahern   San Jose, CA00:00:00.00 281780  501 Easton/SugarCRM/Specialized
DNPdavid gagnon   Salinas, CA00:00:00.00 250142  516 Don Chapin/ Monterey Bay Racin
DNPJagjit Johal   San Mateo, CA00:00:00.00 259595  528 Peninsula Velo/Kondra Systems
DNPEric LaFranchi   Calistoga, CA00:00:00.00 199575  529 NA
DNPJim McDonald   West Sacramento, CA00:00:00.00 96452  536 Rio Strada Racing
DNPJoseph Morales (Cat4)   Gilroy, CA00:00:00.00 159452  537 SJBC/SugarCRM
DNPAllen Jackson   Sonora, CA00:00:00.00 260263  527 Stanislaus/Merlock Velo

Men - Cat 4/5 - Master B - 35-99

 Place Points NameCity, StateTime USAC #BibTeam
1532.62Andrew Scott   Truckee, CA00:00:00.00 281899  716 NA
2536.72Arthur Jones   San Francisco, CA00:00:00.00 272999  708 NA
3540.82Tom Lyons   Fairfax, CA00:00:00.00 281054  711 ZteaM
4544.92Thornton Weiler   Alameda, CA00:00:00.00 147592  719 Cycle Sport/Trumer Pils
5549.01Craig Latimer (1 - Cat4)   Lafayette, CA00:00:00.00 238121  710 East Bay Velo Club
6553.11Randy Volkmar   S Lake Tahoe, CA00:00:00.00 36779  718 great basin imaging
7557.21Douglas Aldrich   San Jose, CA00:00:00.00 245255  700 SJBC/SugarCRM
9561.31Doug MacPherson   San Francisco, CA00:00:00.00 137477  712 Peninsula Velo/Kondra Systems
10565.41marc hamlin   Hathaway Pines, CA00:00:00.00 275127  706 Goldenchain
11569.51Fred Schnaars   Davis, CA00:00:00.00 65032  715 Davis Bike Club
12573.61Mark Gardner   Lathrop, CA00:00:00.00 258953  720 Unattached
13Adam Johnston   00:00:00.00  707 Tres Amigos Racing
14581.80Anthony Eng   El Cerrito, CA00:00:00.00 245065  702 Kaiser Permanente / Team Oakla
15585.90Matt Millar   Stockton, CA00:00:00.00 232794  721 Pacific State Bank Cycling
16590.00Ed Lai   Oakland, CA00:00:00.00 204450  709 Kaiser Permanente / Team Oakla
DNSNick Fitton   Livermore, CA00:00:00.00 254446   
DNSNelson Frink   Sutter, CA00:00:00.00 268821   Davis Bike Club
DNSJohn Murphy   San Francisco, CA00:00:00.00 196340   Webcor/Alto Velo
DQAdam Martin   Antioch, CA00:00:00.00 57185  713 InfoVista Cycling Team
DNPdave dunn   00:00:00.00  701 n/a
DNPJames Gillis (Cat4)   San Francisco, CA00:00:00.00 197260  705 NA
DNPRaj Singh   San Jose, CA00:00:00.00 265000  717 SJBC/SugarCRM

Men - Cat 5 - A

 Place Points NameCity, StateTime USAC #BibTeam
1540.00Christopher Flanagan   San Francisco, CA00:00:00.00 276118  862 Team Swift
2John Constas   00:00:00.00  853 NA
3545.88Jeromy Cottell   Redwood City, CA00:00:00.00 273912  854 Peninsula Velo / Kondra System
4chris heimbuck   00:00:00.00  869 NA
5551.76David Doll   Merced, CA00:00:00.00 281768  857 Stanislaus/Merlock Velo
6Andrew Lagona   00:00:00.00  847 
7557.65Trevor Goines   Clovis, CA00:00:00.00 280568  865 Independent
8560.59Thomas Gross   San Francisco, CA00:00:00.00 263396  868 Dolce Vita
9563.53Julio Cesar Esqueda   Oakland, CA00:00:00.00 272384  860 Berkeley Bicycle Club
10Ryan Drobek   00:00:00.00  858 Moose Too Many
11569.41James DeLong   Apison, TN00:00:00.00 238260  856 Scenic City Velo
12572.35Brendan Glueck   El Cerrito, CA00:00:00.00 275797  863 NA
13Jim Elam   00:00:00.00  859 Stocton Bike Club
14Oxo Slayer   00:00:00.00  849 
15581.18Jeremy Graul   Elk Grove, CA00:00:00.00 239370  867 NA
16584.12Thomas Brinton   San Francisco, CA00:00:00.00 275407  848 
17587.06Jordan Degen   San Francisco, CA00:00:00.00 9056  855 NA
18590.00Steven Au   Burlingame, CA00:00:00.00 91064  850 Village Peddler
DNPEric Cinnamon   Rohnert Park, CA00:00:00.00 273013  852 Colavita-Sutter Home Norcal
DNPMike Gonzales   San Mateo, CA00:00:00.00 205006  866 NA

Men - Cat 5 - B

 Place Points NameCity, StateTime USAC #BibTeam
1540.00Roland Pieruschka   Stanford, CA00:00:00.00 277391  885 Webcor/Alto Velo
2542.38Christopher Kurrle   San Francisco, CA00:00:00.00 257699  875 Touchstone Climbing
3Kris Tjernell   00:00:00.00  893 NA
4547.14Paul Ngo   San Jose, CA00:00:00.00 275571  882 NA
5Ryan Wexler   00:00:00.00  896 NA
6551.90Alex Lugosch   Sanfrancisco, CA00:00:00.00 281513  876 NA
7554.29Burl Pershall   San Anselmo, CA00:00:00.00 276353  884 Village Peddler
8Angus Murray   00:00:00.00  881 NA
9559.05Dustin White   San Francisco, CA00:00:00.00 253687  897 Touchstone Climbing and Fitnes
10561.43Christopher Marcoux   Oakland, CA00:00:00.00 209137  879 NA
11563.81N/A   Oakland, CA00:00:00.00 237905  883 Berkeley Bicycle Club
12tom hodge   00:00:00.00  871 Recovox
13Scott Schroeder   00:00:00.00  887 NA
14570.95Gilbert Tarin   Knightsen, CA00:00:00.00 252241  892 NA
15573.33Mike Reed   Menlo Park, CA00:00:00.00 273849  886 Webcor Alto Velo
16Jeff Kesner   00:00:00.00  873 SJBC/Sugar CRM
17578.10Eric Holmes   Cupertino, CA00:00:00.00 272020  872 Beer
18580.48Dan Switlick   Granite Bay, CA00:00:00.00 271280  891 Team Ride for a Reason
19582.86Ronald Magcauas   Vallejo, CA00:00:00.00 269823  878 Luzvimin
20585.24rozel tupaz   Bay Point, CA00:00:00.00 269119  894 LuzViMin
21587.62Todd Weaver   San Francisco, CA00:00:00.00 281879  895 NA
22590.00Naveen Molloy   Sanfrancisco, CA00:00:00.00 283139  880 NA
DNScameron birky   00:00:00.00   NA
DNSMichael Ferrell   Provo, UT00:00:00.00 254614   Race Builders
DNSEric Gneckow   Gilroy, CA00:00:00.00 275884   NA
DNSWilliam Ho   00:00:00.00   NA
DNSMark Knutson   Capitola, CA00:00:00.00 267007   Santa Cruz Cycling Club Race T
DNSAndrew Smith   Santa Cruz, CA00:00:00.00 275786   NA
DNSScott Sommerfeld   00:00:00.00   NA
DNSBrian winco   00:00:00.00   NA
DNSJames Maltbie   Brentwood , CA00:00:00.00 271086   Bikes 4 Life
DNPJeremy Stanley   Cazadero, CA00:00:00.00 278623  890 NA
DNPYuri Zhovnirovsky   Albany, CA00:00:00.00 265206  899 NA

Men - Master - MR - 45-99

 Place Points NameCity, StateTime USAC #BibTeam
1426.21Clark Rasmussen   San Francisco, CA00:00:00.00 47316  929 Wells Fargo Racing Team
2431.03Jan Elsbach   Davis, CA00:00:00.00 200149  906 Bollo Racing
3435.84Rick Martyn   Pleasant Hill, CA00:00:00.00 204699  919 VOS Racing
4440.66Steven Archer   Danville, CA00:00:00.00 87938  900 Morgan Stanley/24hr Fitness/Sp
5445.48David Passmore   San Carlos, CA00:00:00.00 27378  928 Berkeley Bike Club
6450.30Eric Saltzman   Menlo Park, CA00:00:00.00 46157  930 Morgan Stanley/24 Hr Fitness/S
7455.11Kevin Susco   Palo Alto, CA00:00:00.00 186898  932 Webcor/Alto Velo
8459.93Max Thompson   San Anselmo, CA00:00:00.00 80642  934 Morgn Stanley/24hr fitness/Spe
9464.75James Morgan   Oakland, CA00:00:00.00 208555  922 Webcor/Alto Velo
10469.57George Smith   Menlo Park, CA00:00:00.00 168005  940 Webcor/Alto Velo
11474.38Chris Courtney   Oakdale, CA00:00:00.00 47303  903 Unattached
12479.20Karl Ehlert   Redwood City, CA00:00:00.00 10559  905 WEBCOR/ALTO VELO
13484.02Phillip Lovaglio   Hollister, CA00:00:00.00 90122  937 Global Bikes Racing / Speciali
14488.84Lance Newey   Fair Oaks, CA00:00:00.00 202161  924 Specialized/Sierra Nevada
15493.65David Figueiredo   Arcata, CA00:00:00.00 255535  908 Adventure's Edge
16498.47Scott Busby   Bishop, CA00:00:00.00 246451  902 East Side Velo
17503.29Bruce Garrett   Palo Alto, CA00:00:00.00 273888  910 Webcor Alto Velo
18508.10Stanley Terusaki   Livermore, CA00:00:00.00 35241  933 morgan stanley/24 hr fitness/s
19512.92Steven Grusis   Madera, CA00:00:00.00 60756  911 Action Sports/SSC Racing Team
20517.74Ron LeBard   Grass Valley, CA00:00:00.00 125445  917 Webcor/Alto Velo
21522.56Zack Beekler   Redwood City, CA00:00:00.00 249741  901 Solgar Vitamin & Herb
22527.37Norman Kreiss   Orinda, CA00:00:00.00 127410  915 Morgan Stanley/24 Hr Fitness/S
23532.19Kevin Willitts   S Lake Tahoe, CA00:00:00.00 192774  936 Great Basin Imaging
24537.01Barry Schwarz   Berkeley, CA00:00:00.00 45914  938 Alto Velo Racing Club
25541.83Rudi Verhoeven   Greenbrae, CA00:00:00.00 251327  935 Team CS
26546.64Jeff Farnsworth   Los Gatos, CA00:00:00.00 11267  907 SJBC/SugarCRM
27551.46Kevin ODonnell   Greenbrae, CA00:00:00.00 242028  926 ZTeam
28Robin McKinney   00:00:00.00  921 Victory Velo
29561.10Russell McCrary   San Ramon, CA00:00:00.00 253276  920 ZteaM Cycling
30565.91Will Parks   Oakland00:00:00.00 274034  927 NA
31570.73Frank Eeckman   Berkeley, CA00:00:00.00 282606  904 NA
32575.55Mark Holmes   Turlock, CA00:00:00.00 16603  913 Stanislaus/Merlock Velo
33580.37Sid Noyes   Eureka, CA00:00:00.00 54640  925 ZTeam
34Doug Hageman   00:00:00.00  912 NA
35590.00Mark Latino   Fairfield, CA00:00:00.00 235760  916 mako/galaxy granola
DNSEvan Kapel   Santa Cruz, CA00:00:00.00 158232   California Giant Cycling
DNSJeff Needham   Vacaville, CA00:00:00.00 91021   Davis Bike Club
DNPScott Frake   Cupertino, CA00:00:00.00 187388  909 Webcor/Alto Velo
DNPPatrick Logan   San Ramon, CA00:00:00.00 242583  918 Third Pillar
DNPCraig Steinmaus (Cat3)   San Francisco, CA00:00:00.00 236825  931 z team

Men - Junior - JR - 15-16

 Place Points NameCity, StateTime USAC #BibTeam
1Alistair Eeckman   Berkeley, CA00:00:00.00 281189  760 NA
DNPKenneth Burns   San Carlos, CA00:00:00.00 198449  762 Webcor/Alto Velo
DNFJohnny Mullane   Watsonville, CA00:00:00.00 281204  761 California Giant Cycling

Women - Cat 1/2/3

 Place Points NameCity, StateTime USAC #BibTeam
1533.48Flavia Oliveira   Livermore, CA00:00:00.00 224767  358 Unattached
2534.60Kelly McDonald   Davis, CA00:00:00.00 202178  356 Touchstone Climbing
3535.72Jane Despas   Menlo Park, CA00:00:00.00 105201  362 Unattached
4536.84Olivia Dillon   Fairfax, CA00:00:00.00 232172  353 Touchstone Climbing
5537.96Maria Monica (1 - Cat1)   Thousand Oaks, CA00:00:00.00 203748  357 Touchstone Climbing
6539.08susannah breen   Pleasant Hill, CA00:00:00.00 251128  352 wells fargo racing team
7540.20Alison Starnes   Mill Valley, CA00:00:00.00 266806  361 Dolce Vita Cycling
8Erin Dunn   00:00:00.00  354 
DNSLauraleen Fenech   San Francisco, CA00:00:00.00 224272   Team Walthour
DNPTrudy Bjornsen   Dixon, CA00:00:00.00 180561  351 davis bike club
DNPAnny Henry   Mountain View, CA00:00:00.00 238246  359 Unattached
DNPCatherine Robertson-Goodkin   Healdsburg, CA00:00:00.00 258429  360 Dolce Vita Cycling

Women - Cat 3

 Place Points NameCity, StateTime USAC #BibTeam
1540.00Jean Harvey   San Ramon, CA00:00:00.00 129688  468 Synergy-Taleo
2544.09Cody Clark   Sacramento, CA00:00:00.00 248416  461 Wells Fargo
3548.17Emily Foxman   Mountain View, CA00:00:00.00 255430  462 UC Davis Aggies
4552.26Francesca Barsamian   Oakland, CA00:00:00.00 208596  467 Webcor/Alto Velo
5556.34Lucia Mokres   Redwood City, CA00:00:00.00 262113  463 Easton/SugarCRM/Specialized
6560.43Deborah Levine   Alamo, CA00:00:00.00 189986  465 Synergy-Taleo
7564.52Shari Raymond   Hayward, CA00:00:00.00 200415  464 InfoVista Cycling Team
8568.60Birgit Cory   San Francisco, CA00:00:00.00 224694  466 California Road Club
9572.69Jennifer Barlow   Benicia, CA00:00:00.00 240797  460 Eagle Cycling Club

Women - Cat 4

 Place Points NameCity, StateTime USAC #BibTeam
1540.00Jennifer Zierke   Millbrae, CA00:00:00.00 275670  656 Mad Cat Bicycles
2546.25Marianne Hernandez   Davis, CA00:00:00.00 68813  653 Davis Bike Club
3552.50Mary Magnani   San Francisco, CA00:00:00.00 257717  654 Dolce Vita
4558.75Larissa Fitchett   Silverado, CA00:00:00.00 274696  652 Cal Aggie Cyclists
5565.00Tanya Davis   Fairfax, CA00:00:00.00 257979  651 NorCal Velo Women's Cycling Te
6571.25Jillian Kollman   Elk Grove, CA00:00:00.00 258243  658 Mad Cat Bicycles
7577.50Brett Ortiz   San Francisco, CA00:00:00.00 271361  655 Zteam
8583.75Joanna Bechtel   Oakland, CA00:00:00.00 272856  650 NA
9590.00Jamie Taylor   San Diego, CA00:00:00.00 282498  657 

Women - Master - MR - 30-99

 Place Points NameCity, StateTime USAC #BibTeam
1540.00Janet Gahagen   Mountain View, CA00:00:00.00 207285  583 Monta Vista Velo (MVV)
2556.67Lea Brooks   San Luis Obispo, CA00:00:00.00 51564  580 
3573.33Phyllis Olrich   Grass Valley, CA00:00:00.00 125288  581 Webcor/Alto Velo
4590.00Andrea Symons (1 - Cat4)   Union City, CA00:00:00.00 282243  582 Team Fremont/Sugar CRM

Report missing or incorrect license numbers

Volkswagen
SpyShimanoBonk BreakerUSACDFSierra NevadaCUORE
UCI USA Cycling is the official governing body for all disciplines of competitive cycling in the United States. The 501c3, membership-based organization aims both to achieve sustained success in international cycling competition and to grow competitive cycling in America while delivering an exceptional customer experience.
View Children's Online Privacy Protection Policy
US Olympic Committee